Regional Weather Roundup
Issued by NWS

Home | Current Version | Previous Version | Graphics & Text | Print | Product List | Glossary On
Versions: 1 2 3 4 5 6 7 8 9 10 11 12 13 14 15 16 17 18 19 20 21 22 23 24 25 26 27 28 29 30 31 32 33 34 35 36 37 38 39 40 41 42 43 44 45 46 47 48 49 50
000
ASUS45 KCYS 250710
RWRWY

WYOMING REGIONAL WEATHER ROUNDUP
NATIONAL WEATHER SERVICE CHEYENNE WY
100 AM MDT MON MAY 25 2015

NOTE:  "FAIR" INDICATES FEW OR NO CLOUDS BELOW 12,000 FEET
WITH NO SIGNIFICANT WEATHER AND/OR OBSTRUCTIONS TO VISIBILITY.

WYZ001-250800-
YELLOWSTONE NATIONAL PARK

CITY           SKY/WX    TMP DP  RH WIND       PRES   REMARKS
LK YELLOWSTONE   N/A     32  30  92 CALM      30.04F
W YELLOWSTONE  NOT AVBL

$$
WYZ002>013-054>058-071-098>099-250800-
NORTHERN WYOMING

CITY           SKY/WX    TMP DP  RH WIND       PRES   REMARKS
JACKSON        CLOUDY    46  37  71 NE8       29.96S
CODY           CLOUDY    48  41  76 N5        29.96F
GREYBULL       CLOUDY    52  46  80 CALM      29.89S
WORLAND        CLOUDY    52  47  83 CALM      29.91R
SHERIDAN       RAIN      48  47  96 CALM      29.93S
BUFFALO        LGT RAIN  46  45  96 NW7       29.94S FOG
GILLETTE       CLOUDY    49  47  93 N9        29.89F
HULETT         LGT RAIN  50  50 100 CALM      29.90S
NEWCASTLE      FAIR      48  46  93 CALM      29.87F

$$
WYZ014>020-022>026-101>103-250800-
CENTRAL WYOMING

CITY           SKY/WX    TMP DP  RH WIND       PRES   REMARKS
BIG PINEY      CLOUDY    42  39  89 SW7       30.00S
PINEDALE       CLOUDY    41  41 100 CALM      30.01S
DUBOIS         CLOUDY    41  37  87 W3        29.99S
LANDER         LGT RAIN  45  42  89 SW6       29.94F
RIVERTON       LGT RAIN  46  45  96 W7        29.95F
CASPER         CLOUDY    44  41  89 N9        29.92S
DOUGLAS        CLOUDY    47  45  93 NW7       29.89F

$$
WYZ021-027>030-104>119-250800-
SOUTHERN WYOMING

CITY           SKY/WX    TMP DP  RH WIND       PRES   REMARKS
EVANSTON       LGT RAIN  43  41  93 SW6       29.99S
KEMMERER       CLOUDY    41  37  87 CALM      30.00F
FORT BRIDGER   CLOUDY    43  43 100 S6        30.02S
ROCK SPRINGS   CLOUDY    42  39  89 E6        29.98S
DIXON          CLOUDY    42  39  90 NE5       30.00R
RAWLINS        CLOUDY    43  38  82 W3        29.95F
SARATOGA       FAIR      37  36  93 SW8       29.97S WCI  31
LARAMIE        CLOUDY    40  36  86 NW5       29.92F
CHEYENNE       RAIN      45  41  86 N9        29.90R FOG
TORRINGTON     LGT RAIN  51  49  92 E3        29.84F
PINE BLUFFS    DRIZZLE   46  45  93 W3        29.87F

$$


USA.gov is the U.S. government's official web portal to all federal, state and local government web resources and services.